Weather History for KJAN - September, 2011

Change the Weather History Date:

Thursday, September 1, 2011

  Actual Average Record
Temperature  
Mean Temperature 86 °F 80 °F  
Max Temperature 98 °F 90 °F 104 °F (2000)
Min Temperature 73 °F 69 °F 52 °F (1903)
Degree Days  
Heating Degree Days 0 0  
Month to date heating degree days 0 0  
Since 1 July heating degree days 0 0  
Cooling Degree Days 21 15  
Month to date cooling degree days 21 15  
Year to date cooling degree days 2343 1814  
Growing Degree Days 36 (Base 50)    
Moisture  
Dew Point 69 °F    
Average Humidity 61    
Maximum Humidity 87    
Minimum Humidity 35    
Precipitation  
Precipitation 0.00 in 0.10 in 1.85 in (1930)
Month to date precipitation 0.00 0.10  
Year to date precipitation 25.62 37.38  
Sea Level Pressure  
Sea Level Pressure 30.00 in    
Wind  
Wind Speed 5 mph (ESE)    
Max Wind Speed 17 mph    
Max Gust Speed 22 mph    
Visibility 9 miles    
Events      
T = Trace of Precipitation, MM = Missing Value Source: NWS Daily Summary

Daily Weather History Graph

Daily Weather History Graph

Search for Another Location

Airport or City:

Trip Planner

Search our weather history database for the weather conditions in past years. The results will help you decide how hot, cold, wet, or windy it might be!

Date:

Astronomy

Sep. 01, 2011 Rise Set
Actual Time 6:35 AM CDT 7:24 PM CDT
Civil Twilight 6:10 AM CDT 7:49 PM CDT
Nautical Twilight 5:40 AM CDT 8:19 PM CDT
Astronomical Twilight 5:10 AM CDT 8:49 PM CDT
Moon 10:34 AM CDT (9/1) 9:37 PM CDT (9/1)
Length of Visible Light 13h 39m
Length of Day
12h 49m
Waxing Crescent, 18% of the Moon is Illuminated
Sep 1
Waxing Crescent
Sep 4
First Quarter
Sep 12
Full
Sep 20
Last Quarter
Sep 27
New

Hourly Weather History & Observations

Time (CDT) Temp. Heat Index Dew Point Humidity Pressure Visibility Wind Dir Wind Speed Gust Speed Precip Events Conditions
12:54 AM 81.0 °F 84.1 °F 69.1 °F 67% 30.00 in 10.0 mi Calm Calm - N/A   Clear
1:54 AM 79.0 °F - 69.1 °F 72% 30.00 in 9.0 mi Calm Calm - N/A   Clear
2:54 AM 75.9 °F - 69.1 °F 79% 29.99 in 9.0 mi Calm Calm - N/A   Clear
3:54 AM 75.0 °F - 69.1 °F 82% 30.00 in 9.0 mi Calm Calm - N/A   Clear
4:54 AM 73.9 °F - 69.1 °F 85% 30.02 in 8.0 mi Calm Calm - N/A   Clear
5:54 AM 73.9 °F - 70.0 °F 87% 30.03 in 8.0 mi Calm Calm - N/A   Clear
6:54 AM 73.9 °F - 70.0 °F 87% 30.05 in 6.0 mi Calm Calm - N/A   Clear
7:54 AM 78.1 °F - 72.0 °F 81% 30.06 in 7.0 mi East 4.6 mph - N/A   Clear
8:54 AM 84.0 °F 91.2 °F 73.9 °F 72% 30.07 in 10.0 mi ESE 6.9 mph - N/A   Clear
9:54 AM 87.1 °F 93.6 °F 72.0 °F 61% 30.06 in 10.0 mi ESE 8.1 mph - N/A   Clear
10:54 AM 91.0 °F 96.6 °F 70.0 °F 50% 30.05 in 10.0 mi ESE 9.2 mph 16.1 mph N/A   Partly Cloudy
11:54 AM 93.0 °F 97.4 °F 68.0 °F 44% 30.04 in 10.0 mi ESE 6.9 mph 17.3 mph N/A   Scattered Clouds
12:54 PM 95.0 °F 99.5 °F 68.0 °F 41% 30.02 in 10.0 mi SE 10.4 mph 20.7 mph N/A   Mostly Cloudy
1:54 PM 96.1 °F 101.0 °F 68.0 °F 40% 29.99 in 10.0 mi Calm Calm - N/A   Mostly Cloudy
2:54 PM 98.1 °F 102.4 °F 66.9 °F 36% 29.96 in 10.0 mi ENE 9.2 mph 21.9 mph N/A   Mostly Cloudy
3:54 PM 98.1 °F 101.8 °F 66.0 °F 35% 29.95 in 10.0 mi East 6.9 mph - N/A   Mostly Cloudy
4:54 PM 95.0 °F 97.9 °F 66.0 °F 38% 29.95 in 10.0 mi ESE 8.1 mph - N/A   Mostly Cloudy
5:54 PM 95.0 °F 97.9 °F 66.0 °F 38% 29.94 in 10.0 mi ESE 12.7 mph 20.7 mph N/A   Scattered Clouds
6:54 PM 91.0 °F 94.3 °F 66.9 °F 45% 29.95 in 10.0 mi SE 8.1 mph - N/A   Scattered Clouds
7:54 PM 87.1 °F 90.6 °F 68.0 °F 53% 29.96 in 10.0 mi SSE 8.1 mph - N/A   Scattered Clouds
8:54 PM 84.9 °F 89.4 °F 70.0 °F 61% 29.97 in 10.0 mi South 3.5 mph - N/A   Clear
9:54 PM 82.9 °F 87.5 °F 71.1 °F 67% 29.98 in 10.0 mi South 4.6 mph - N/A   Clear
10:54 PM 79.0 °F - 71.1 °F 77% 29.98 in 10.0 mi SE 4.6 mph - N/A   Clear
11:54 PM 79.0 °F - 71.1 °F 77% 29.98 in 10.0 mi SE 6.9 mph - N/A   Clear